When you browse on this site, cookies collect data to enhance your experience and personalize the content and advertising you see.
Visit our Privacy Policy to learn more. By continuing to use the site, you agree to this use of cookies and data.
  • In Lithuania
  • List of Countries
  • For 7 days
  • Water Temperature
  • Weather Map
  • Weather Widgets
  • user-avatar
    Login

    Hourly Weather Ordino

    Today, 13 November, Wednesday

    Time Temperature Precipitation Wind Pressure Humidity
    00:00 -1°C° 0 mm 1 mps 622 mmHg 91%
    01:00 -1°C° 0 mm 1 mps 621 mmHg 87%
    02:00 -1°C° 0 mm 1 mps 621 mmHg 84%
    03:00 -1°C° 0 mm 1 mps 621 mmHg 81%
    04:00 0°C° 0 mm 1 mps 621 mmHg 83%
    05:00 +1°C° 0 mm 1 mps 621 mmHg 85%
    06:00 +1°C° 0 mm 1 mps 622 mmHg 87%
    07:00 +1°C° 0.1 mm 2 mps 622 mmHg 87%
    08:00 +1°C° 0.1 mm 2 mps 623 mmHg 86%
    09:00 +2°C° 0.1 mm 2 mps 624 mmHg 85%
    10:00 +3°C° 0.1 mm 2 mps 624 mmHg 81%
    11:00 +3°C° 0.1 mm 2 mps 624 mmHg 77%
    12:00 +3°C° 0.1 mm 3 mps 625 mmHg 73%
    13:00 +2°C° 0 mm 3 mps 624 mmHg 74%
    14:00 +2°C° 0 mm 3 mps 624 mmHg 75%
    15:00 +3°C° 0 mm 2 mps 624 mmHg 76%
    16:00 +1°C° 0 mm 2 mps 624 mmHg 81%
    17:00 -2°C° 0 mm 2 mps 623 mmHg 85%
    18:00 -3°C° 0 mm 2 mps 623 mmHg 90%
    19:00 -1°C° 0 mm 1 mps 623 mmHg 81%
    20:00 -2°C° 0 mm 1 mps 623 mmHg 71%
    21:00 -2°C° 0 mm 1 mps 622 mmHg 62%
    22:00 -2°C° 0 mm 1 mps 622 mmHg 63%
    23:00 -3°C° 0 mm 2 mps 622 mmHg 65%

    Tomorrow, 14 November, Thursday

    Time Temperature Precipitation Wind Pressure Humidity
    00:00 -3°C° 0 mm 2 mps 621 mmHg 66%
    01:00 -3°C° 0.1 mm 2 mps 621 mmHg 74%
    02:00 -2°C° 0.1 mm 2 mps 621 mmHg 82%
    03:00 -2°C° 0.1 mm 2 mps 620 mmHg 89%
    04:00 -2°C° 0.8 mm 2 mps 620 mmHg 92%
    05:00 -2°C° 0.8 mm 2 mps 620 mmHg 94%
    06:00 0°C° 0.8 mm 1 mps 619 mmHg 97%
    07:00 0°C° 1.3 mm 1 mps 619 mmHg 97%
    08:00 0°C° 1.3 mm 1 mps 619 mmHg 97%
    09:00 0°C° 1.3 mm 1 mps 619 mmHg 97%
    10:00 0°C° 1.4 mm 1 mps 619 mmHg 96%
    11:00 0°C° 1.4 mm 1 mps 619 mmHg 96%
    12:00 0°C° 1.4 mm 1 mps 618 mmHg 96%
    13:00 0°C° 1.4 mm 1 mps 618 mmHg 96%
    14:00 -1°C° 1.4 mm 1 mps 617 mmHg 96%
    15:00 -3°C° 1.4 mm 2 mps 617 mmHg 97%
    16:00 -1°C° 1.2 mm 1 mps 617 mmHg 97%
    17:00 -2°C° 1.2 mm 1 mps 617 mmHg 97%
    18:00 -2°C° 1.2 mm 1 mps 617 mmHg 97%
    19:00 -3°C° 0.6 mm 1 mps 617 mmHg 96%
    20:00 -4°C° 0.6 mm 1 mps 617 mmHg 95%
    21:00 -4°C° 0.6 mm 1 mps 617 mmHg 95%
    22:00 -6°C° 0 mm 1 mps 617 mmHg 92%
    23:00 -7°C° 0 mm 1 mps 617 mmHg 89%

    Day after tomorrow, 15 November, Friday

    Time Temperature Precipitation Wind Pressure Humidity
    00:00 -8°C° 0 mm 2 mps 617 mmHg 86%
    01:00 -7°C° 0 mm 1 mps 617 mmHg 85%
    02:00 -7°C° 0 mm 1 mps 617 mmHg 83%
    03:00 -7°C° 0 mm 1 mps 617 mmHg 82%
    04:00 -7°C° 0 mm 1 mps 617 mmHg 82%
    05:00 -8°C° 0 mm 1 mps 617 mmHg 83%
    06:00 -8°C° 0 mm 1 mps 617 mmHg 84%
    07:00 -6°C° 0 mm 1 mps 618 mmHg 78%
    08:00 -3°C° 0 mm 1 mps 619 mmHg 78%
    09:00 -3°C° 0 mm 0 mps 620 mmHg 77%
    10:00 -1°C° 0 mm 1 mps 621 mmHg 77%
    11:00 0°C° 0 mm 1 mps 621 mmHg 78%
    12:00 +1°C° 0 mm 1 mps 621 mmHg 78%
    13:00 +1°C° 0 mm 1 mps 621 mmHg 81%
    14:00 0°C° 0 mm 1 mps 620 mmHg 85%
    15:00 -2°C° 0 mm 2 mps 620 mmHg 89%
    16:00 -3°C° 0 mm 2 mps 620 mmHg 91%
    17:00 -4°C° 0 mm 2 mps 620 mmHg 93%
    18:00 -5°C° 0 mm 2 mps 620 mmHg 95%
    19:00 -4°C° 0 mm 1 mps 620 mmHg 95%
    20:00 -4°C° 0 mm 1 mps 620 mmHg 94%
    21:00 -6°C° 0 mm 1 mps 621 mmHg 93%
    22:00 -6°C° 0 mm 1 mps 621 mmHg 92%
    23:00 -6°C° 0 mm 1 mps 621 mmHg 91%

    16 November, Saturday

    Time Temperature Precipitation Wind Pressure Humidity
    00:00 -7°C° 0 mm 1 mps 621 mmHg 90%
    01:00 -7°C° 0 mm 1 mps 621 mmHg 90%
    02:00 -8°C° 0 mm 2 mps 621 mmHg 89%
    03:00 -8°C° 0 mm 2 mps 622 mmHg 89%
    04:00 -9°C° 0 mm 2 mps 622 mmHg 88%
    05:00 -9°C° 0 mm 2 mps 622 mmHg 87%
    06:00 -9°C° 0 mm 2 mps 623 mmHg 85%
    07:00 -8°C° 0 mm 2 mps 624 mmHg 82%
    08:00 -4°C° 0 mm 1 mps 625 mmHg 79%
    09:00 -2°C° 0 mm 1 mps 626 mmHg 75%
    10:00 -1°C° 0 mm 1 mps 626 mmHg 74%
    11:00 0°C° 0 mm 1 mps 627 mmHg 73%
    12:00 +1°C° 0 mm 1 mps 627 mmHg 72%
    13:00 0°C° 0 mm 1 mps 627 mmHg 74%
    14:00 0°C° 0 mm 1 mps 627 mmHg 76%
    15:00 0°C° 0 mm 1 mps 626 mmHg 78%
    16:00 -4°C° 0 mm 2 mps 626 mmHg 79%
    17:00 -7°C° 0 mm 2 mps 625 mmHg 79%
    18:00 -9°C° 0 mm 2 mps 624 mmHg 80%
    19:00 -9°C° 0 mm 2 mps 624 mmHg 76%
    20:00 -9°C° 0 mm 2 mps 624 mmHg 72%
    21:00 -9°C° 0 mm 2 mps 624 mmHg 69%
    22:00 -9°C° 0 mm 2 mps 624 mmHg 67%
    23:00 -9°C° 0 mm 2 mps 624 mmHg 65%

    17 November, Sunday

    Time Temperature Precipitation Wind Pressure Humidity
    00:00 -8°C° 0 mm 2 mps 623 mmHg 64%
    01:00 -8°C° 0 mm 2 mps 623 mmHg 65%
    02:00 -8°C° 0 mm 2 mps 622 mmHg 66%
    03:00 -8°C° 0 mm 2 mps 622 mmHg 66%
    04:00 -8°C° 0 mm 2 mps 622 mmHg 65%
    05:00 -7°C° 0 mm 2 mps 622 mmHg 64%
    06:00 -7°C° 0 mm 2 mps 621 mmHg 63%
    07:00 -5°C° 0 mm 2 mps 622 mmHg 63%
    08:00 -1°C° 0 mm 1 mps 623 mmHg 64%
    09:00 +1°C° 0 mm 1 mps 624 mmHg 64%
    10:00 +2°C° 0 mm 1 mps 624 mmHg 65%
    11:00 +3°C° 0 mm 1 mps 624 mmHg 66%
    12:00 +4°C° 0 mm 1 mps 624 mmHg 66%
    13:00 +4°C° 0 mm 1 mps 624 mmHg 71%
    14:00 +2°C° 0 mm 0 mps 623 mmHg 75%
    15:00 +2°C° 0 mm 0 mps 623 mmHg 80%
    16:00 +2°C° 0 mm 1 mps 622 mmHg 83%
    17:00 +1°C° 0 mm 1 mps 622 mmHg 86%
    18:00 -1°C° 0 mm 1 mps 622 mmHg 89%
    19:00 -1°C° 0.1 mm 1 mps 622 mmHg 90%
    20:00 0°C° 0.1 mm 1 mps 622 mmHg 91%
    21:00 0°C° 0.1 mm 1 mps 622 mmHg 93%
    22:00 0°C° 0.1 mm 1 mps 622 mmHg 93%
    23:00 0°C° 0.1 mm 1 mps 622 mmHg 93%

    18 November, Monday

    Time Temperature Precipitation Wind Pressure Humidity
    00:00 -1°C° 0.1 mm 1 mps 622 mmHg 93%
    01:00 -1°C° 0.3 mm 1 mps 622 mmHg 94%
    02:00 -1°C° 0.3 mm 1 mps 622 mmHg 95%
    03:00 -1°C° 0.3 mm 1 mps 622 mmHg 97%
    04:00 -1°C° 0.2 mm 1 mps 622 mmHg 96%
    05:00 -1°C° 0.2 mm 1 mps 622 mmHg 96%
    06:00 -1°C° 0.2 mm 1 mps 623 mmHg 96%
    07:00 0°C° 0.2 mm 1 mps 623 mmHg 94%
    08:00 0°C° 0.2 mm 1 mps 624 mmHg 92%
    09:00 +1°C° 0.2 mm 1 mps 625 mmHg 90%
    10:00 +2°C° 0.2 mm 1 mps 625 mmHg 88%
    11:00 +3°C° 0.2 mm 1 mps 625 mmHg 87%
    12:00 +3°C° 0.2 mm 1 mps 626 mmHg 85%
    13:00 +3°C° 0.2 mm 1 mps 626 mmHg 87%
    14:00 +3°C° 0.2 mm 1 mps 626 mmHg 88%
    15:00 +2°C° 0.2 mm 1 mps 626 mmHg 90%
    16:00 +1°C° 0.3 mm 1 mps 626 mmHg 91%
    17:00 -2°C° 0.3 mm 2 mps 626 mmHg 93%
    18:00 -3°C° 0.3 mm 2 mps 625 mmHg 95%
    19:00 -4°C° 0 mm 2 mps 625 mmHg 94%
    20:00 -2°C° 0 mm 1 mps 625 mmHg 94%
    21:00 -3°C° 0 mm 1 mps 625 mmHg 93%
    22:00 -3°C° 0 mm 1 mps 625 mmHg 91%
    23:00 -3°C° 0 mm 1 mps 625 mmHg 89%
    Show more